Location: Voyageurs National Park
(48.5020°N, 92.9292°W)
Time: 23:02:11
(UTC-05:00)

Feng Yun 1-1 Rocket - Pass Details

Date: 19 January 2018
Orbit: 829 x 934 km, 99.2° (Epoch: 25 May)

Event Time Altitude Azimuth Distance (km) Brightness Sun altitude
Rises 05:59:48 0° 12° (NNE) 3,420 7.4 -18.7°
Reaches altitude 10° 06:02:13 10° 9° (N) 2,470 6.6 -18.3°
Maximum altitude 06:07:33 59° 291° (WNW) 965 4.2 -17.5°
Drops below altitude 10° 06:12:49 10° 214° (SSW) 2,431 6.4 -16.6°
Sets 06:15:10 0° 210° (SSW) 3,361 7.1 -16.2°
